Bloomington, IN

7:48 AM EDT on June 25, 2017 (GMT -0400)
Monroe County

Weather History for KBMG - January, 2001

Change the Weather History Date:

Friday, January 5, 2001

  Actual Average Record
Temperature  
Mean Temperature 34 °F 29 °F  
Max Temperature 37 °F 38 °F 62 °F (2007)
Min Temperature 27 °F 21 °F -13 °F (1999)
Degree Days  
Heating Degree Days 32 36  
Month to date heating degree days 180  
Since 1 July heating degree days 2253  
Cooling Degree Days 0 0  
Month to date cooling degree days 0  
Year to date cooling degree days 0  
Moisture  
Dew Point 26 °F    
Average Humidity 74    
Maximum Humidity 85    
Minimum Humidity 64    
Precipitation  
Precipitation 0.00 in 0.13 in 2.30 in (2005)
Month to date precipitation 0.67  
Year to date precipitation 0.67  
Sea Level Pressure  
Sea Level Pressure 29.77 in    
Wind  
Wind Speed 15 mph (West)    
Max Wind Speed 20 mph    
Max Gust Speed 28 mph    
Visibility 9 miles    
Events      
T = Trace of Precipitation, MM = Missing Value Source: NWS Daily Summary

Daily Weather History Graph

Daily Weather History Graph

Search for Another Location

Airport or City:

Trip Planner

Search our weather history database for the weather conditions in past years. The results will help you decide how hot, cold, wet, or windy it might be!

Date:

Astronomy

Jan. 05, 2001 Rise Set
Actual Time 8:06 AM EST 5:38 PM EST
Civil Twilight 7:36 AM EST 6:07 PM EST
Nautical Twilight 7:02 AM EST 6:41 PM EST
Astronomical Twilight 6:30 AM EST 7:13 PM EST
Moon 2:15 PM EST (1/5) 3:16 AM EST (1/5)
Length of Visible Light 10h 31m
Length of Day
9h 32m
Waxing Gibbous, 78% of the Moon is Illuminated
Jan 5
Waxing Gibbous
Jan 9
Full
Jan 16
Last Quarter
Jan 24
New
Feb 1
First Quarter

Hourly Weather History & Observations

Time (EST) Temp. Windchill Dew Point Humidity Pressure Visibility Wind Dir Wind Speed Gust Speed Precip Events Conditions
12:53 AM 32.0 °F 20.5 °F 25.0 °F 75% 29.75 in 8.0 mi SSW 18.4 mph 27.6 mph N/A   Clear
1:53 AM 32.0 °F 20.5 °F 26.1 °F 79% 29.75 in 8.0 mi SW 18.4 mph - N/A   Clear
2:53 AM 33.1 °F 21.9 °F 27.0 °F 78% 29.70 in 8.0 mi WSW 18.4 mph 27.6 mph N/A   Clear
3:53 AM 33.1 °F 21.5 °F 27.0 °F 78% 29.69 in 8.0 mi WSW 19.6 mph 27.6 mph N/A   Clear
4:53 AM 32.0 °F 20.1 °F 27.0 °F 82% 29.68 in 8.0 mi WSW 19.6 mph 26.5 mph N/A   Clear
5:53 AM 32.0 °F 22.1 °F 26.1 °F 79% 29.70 in 8.0 mi West 13.8 mph - N/A   Clear
6:53 AM 32.0 °F 21.2 °F 26.1 °F 79% 29.72 in 9.0 mi West 16.1 mph 21.9 mph N/A   Clear
7:53 AM 30.0 °F 20.5 °F 25.0 °F 82% 29.73 in 9.0 mi West 11.5 mph - N/A   Clear
8:53 AM 30.0 °F 21.1 °F 26.1 °F 85% 29.74 in 9.0 mi West 10.4 mph - N/A   Clear
9:53 AM 32.0 °F 22.1 °F 27.0 °F 82% 29.75 in 10.0 mi West 13.8 mph - N/A   Clear
10:53 AM 34.0 °F 24.2 °F 27.0 °F 75% 29.75 in 10.0 mi West 15.0 mph - N/A   Clear
11:53 AM 36.0 °F 26.3 °F 27.0 °F 70% 29.73 in 10.0 mi West 16.1 mph 25.3 mph N/A   Clear
12:53 PM 37.9 °F 28.2 °F 27.0 °F 65% 29.71 in 10.0 mi West 18.4 mph - N/A   Clear
1:53 PM 37.9 °F 29.6 °F 27.0 °F 65% 29.70 in 10.0 mi West 13.8 mph 23.0 mph N/A   Clear
2:53 PM 37.9 °F 28.9 °F 27.0 °F 65% 29.70 in 10.0 mi West 16.1 mph - N/A   Clear
3:53 PM 37.0 °F 28.1 °F 27.0 °F 67% 29.72 in 10.0 mi West 15.0 mph 24.2 mph N/A   Clear
4:53 PM 36.0 °F 25.6 °F 25.0 °F 64% 29.75 in 10.0 mi WNW 18.4 mph 25.3 mph N/A   Overcast
5:53 PM 35.1 °F 24.5 °F 25.0 °F 67% 29.78 in 10.0 mi WNW 18.4 mph 23.0 mph N/A   Overcast
6:16 PM 33.8 °F 24.8 °F 24.8 °F 70% 29.78 in 10.0 mi WNW 12.7 mph - N/A   Overcast
6:38 PM 33.8 °F 23.9 °F 24.8 °F 70% 29.79 in 10.0 mi WNW 15.0 mph 23.0 mph N/A   Overcast
6:53 PM 34.0 °F 27.2 °F 25.0 °F 70% 29.82 in 10.0 mi WNW 8.1 mph - N/A   Overcast
7:46 PM 33.8 °F 25.8 °F 24.8 °F 70% 29.81 in 10.0 mi WNW 10.4 mph - N/A   Overcast
7:53 PM 33.1 °F 25.5 °F 24.1 °F 70% 29.84 in 10.0 mi NW 9.2 mph 19.6 mph N/A   Overcast
8:53 PM 33.1 °F 26.9 °F 24.1 °F 70% 29.87 in 10.0 mi WNW 6.9 mph - N/A   Overcast
9:53 PM 30.9 °F 22.8 °F 24.1 °F 76% 29.89 in 10.0 mi WNW 9.2 mph - N/A   Partly Cloudy
10:53 PM 30.0 °F 22.4 °F 23.0 °F 75% 29.91 in 10.0 mi WNW 8.1 mph - N/A   Clear
11:53 PM 27.0 °F 21.6 °F 21.0 °F 78% 29.91 in 10.0 mi West 4.6 mph - N/A   Clear